QPF
0.00 0.00 0.01 0.01 0.02 0.02 0.02 0.02 0.02 0.01 0.01 0.01 0.01 0.01 0.02 0.02 0.03 0.03 0.03 0.01 0.01 0.02 0.02 0.02 0.02 0.02 0.02 0.01 0.01 0.01 0.01 0.01 0.01 0.01 0.01 0.01 0.02 0.02 0.02 0.01 0.01 0.01 0.02
0.00 0.00 0.01 0.01 0.02 0.02 0.02 0.02 0.03 0.02 0.02 0.02 0.02 0.02 0.02 0.03 0.03 0.03 0.03 0.02 0.02 0.02 0.02 0.02 0.02 0.02 0.02 0.01 0.01 0.01 0.01 0.00 0.00 0.00 0.01 0.02 0.02 0.02 0.01 0.01 0.01 0.01 0.01
0.00 0.00 0.01 0.01 0.02 0.02 0.02 0.03 0.03 0.03 0.03 0.03 0.03 0.04 0.04 0.04 0.04 0.04 0.03 0.03 0.02 0.02 0.02 0.02 0.02 0.02 0.01 0.01 0.01 0.01 0.01 0.00 0.00 0.00 0.00 0.01 0.02 0.03 0.02 0.01 0.01 0.01 0.01
0.00 0.00 0.01 0.01 0.02 0.03 0.03 0.03 0.04 0.04 0.04 0.04 0.05 0.06 0.06 0.06 0.05 0.05 0.04 0.04 0.03 0.03 0.03 0.03 0.02 0.02 0.01 0.01 0.01 0.01 0.00 0.00 0.00 0.00 0.00 0.01 0.01 0.02 0.01 0.01 0.01 0.02 0.02
0.00 0.00 0.01 0.02 0.03 0.04 0.04 0.04 0.05 0.05 0.05 0.05 0.06 0.06 0.07 0.08 0.08 0.07 0.05 0.04 0.04 0.03 0.03 0.03 0.02 0.02 0.01 0.01 0.00 0.00 0.01 0.00 0.00 0.00 0.00 0.01 0.01 0.02 0.01 0.01 0.01 0.02 0.02
0.00 0.00 0.01 0.02 0.03 0.04 0.05 0.05 0.06 0.06 0.07 0.07 0.07 0.08 0.09 0.10 0.09 0.09 0.08 0.07 0.05 0.04 0.03 0.03 0.02 0.02 0.01 0.01 0.01 0.01 0.00 0.00 0.00 0.00 0.00 0.00 0.00 0.01 0.01 0.02 0.02 0.02 0.01
0.00 0.01 0.01 0.02 0.03 0.04 0.05 0.06 0.07 0.07 0.08 0.08 0.08 0.09 0.10 0.11 0.10 0.10 0.10 0.08 0.06 0.05 0.04 0.02 0.02 0.01 0.01 0.01 0.01 0.01 0.00 0.00 0.00 0.00 0.00 0.00 0.00 0.01 0.02 0.02 0.02 0.02 0.01
0.01 0.01 0.02 0.03 0.04 0.05 0.06 0.07 0.09 0.09 0.10 0.10 0.10 0.10 0.11 0.12 0.12 0.11 0.11 0.09 0.08 0.06 0.05 0.03 0.02 0.01 0.01 0.01 0.01 0.01 0.00 0.00 0.00 0.00 0.00 0.00 0.01 0.02 0.03 0.02 0.02 0.02 0.01
0.01 0.02 0.03 0.04 0.05 0.06 0.07 0.08 0.10 0.11 0.11 0.12 0.12 0.12 0.13 0.14 0.15 0.14 0.14 0.13 0.11 0.09 0.07 0.06 0.04 0.02 0.01 0.01 0.01 0.00 0.00 0.00 0.00 0.00 0.00 0.00 0.01 0.02 0.03 0.02 0.02 0.01 0.00
0.02 0.03 0.04 0.05 0.06 0.06 0.07 0.09 0.11 0.12 0.12 0.13 0.14 0.14 0.14 0.16 0.18 0.18 0.19 0.17 0.15 0.13 0.10 0.09 0.06 0.04 0.03 0.02 0.01 0.00 0.00 0.00 0.00 0.00 0.00 0.00 0.01 0.03 0.04 0.02 0.01 0.01 0.00
0.04 0.04 0.05 0.06 0.07 0.07 0.07 0.09 0.12 0.14 0.14 0.14 0.16 0.15 0.16 0.18 0.19 0.20 0.19 0.20 0.19 0.16 0.12 0.10 0.08 0.06 0.05 0.04 0.02 0.01 0.00 0.00 0.00 0.00 0.00 0.00 0.01 0.04 0.04 0.01 0.01 0.00 0.00
0.05 0.04 0.05 0.07 0.08 0.09 0.09 0.09 0.10 0.13 0.15 0.15 0.14 0.14 0.15 0.15 0.17 0.19 0.19 0.20 0.20 0.20 0.16 0.13 0.10 0.07 0.06 0.04 0.03 0.01 0.00 0.00 0.00 0.00 0.00 0.01 0.02 0.04 0.03 0.01 0.00 0.00 0.00
0.05 0.05 0.05 0.07 0.08 0.09 0.09 0.09 0.10 0.12 0.14 0.14 0.14 0.13 0.12 0.13 0.16 0.19 0.19 0.19 0.19 0.21 0.20 0.16 0.14 0.09 0.06 0.04 0.02 0.01 0.00 0.00 0.00 0.00 0.00 0.01 0.02 0.04 0.03 0.01 0.01 0.01 0.01
0.06 0.06 0.06 0.06 0.09 0.10 0.09 0.08 0.09 0.11 0.13 0.14 0.13 0.12 0.11 0.12 0.14 0.18 0.22 0.20 0.18 0.18 0.18 0.17 0.14 0.10 0.06 0.05 0.03 0.02 0.01 0.00 0.00 0.00 0.01 0.01 0.02 0.03 0.03 0.01 0.01 0.01 0.01
0.07 0.08 0.07 0.07 0.09 0.10 0.10 0.08 0.08 0.10 0.12 0.16 0.15 0.11 0.09 0.10 0.12 0.15 0.20 0.23 0.20 0.18 0.17 0.17 0.15 0.11 0.07 0.05 0.04 0.03 0.02 0.01 0.00 0.00 0.01 0.01 0.01 0.02 0.03 0.02 0.01 0.01 0.01
0.07 0.10 0.10 0.09 0.09 0.10 0.09 0.07 0.07 0.09 0.12 0.15 0.17 0.14 0.10 0.09 0.10 0.13 0.17 0.20 0.21 0.18 0.16 0.15 0.14 0.12 0.09 0.06 0.04 0.03 0.02 0.01 0.01 0.00 0.00 0.01 0.01 0.01 0.02 0.02 0.02 0.01 0.01
0.07 0.11 0.12 0.10 0.10 0.09 0.08 0.08 0.08 0.09 0.11 0.15 0.17 0.17 0.15 0.12 0.11 0.12 0.15 0.17 0.19 0.18 0.17 0.16 0.16 0.15 0.13 0.10 0.07 0.05 0.03 0.02 0.01 0.00 0.00 0.01 0.00 0.01 0.01 0.01 0.01 0.01 0.01
0.06 0.09 0.11 0.10 0.09 0.09 0.07 0.07 0.08 0.09 0.11 0.12 0.17 0.20 0.18 0.16 0.13 0.13 0.15 0.17 0.18 0.21 0.20 0.17 0.16 0.16 0.16 0.14 0.12 0.09 0.07 0.04 0.02 0.01 0.01 0.01 0.00 0.00 0.00 0.01 0.01 0.01 0.01
0.05 0.07 0.09 0.10 0.10 0.09 0.08 0.06 0.07 0.09 0.13 0.15 0.17 0.21 0.21 0.18 0.15 0.14 0.15 0.17 0.19 0.21 0.21 0.18 0.15 0.15 0.16 0.15 0.14 0.13 0.11 0.08 0.05 0.04 0.02 0.01 0.01 0.00 0.00 0.00 0.00 0.00 0.01
0.06 0.06 0.08 0.09 0.10 0.10 0.08 0.06 0.06 0.08 0.12 0.17 0.20 0.19 0.23 0.22 0.17 0.15 0.16 0.17 0.18 0.21 0.20 0.18 0.14 0.13 0.13 0.13 0.14 0.13 0.11 0.10 0.08 0.06 0.05 0.03 0.02 0.01 0.00 0.00 0.00 0.00 0.00
0.07 0.06 0.07 0.09 0.10 0.10 0.09 0.07 0.05 0.07 0.10 0.15 0.18 0.19 0.20 0.23 0.22 0.18 0.16 0.16 0.16 0.16 0.17 0.17 0.14 0.12 0.13 0.13 0.14 0.14 0.13 0.11 0.09 0.07 0.06 0.05 0.03 0.01 0.00 0.00 0.00 0.00 0.00
0.07 0.06 0.07 0.09 0.09 0.09 0.08 0.06 0.06 0.06 0.09 0.13 0.17 0.20 0.21 0.20 0.20 0.21 0.19 0.17 0.16 0.14 0.15 0.16 0.14 0.13 0.12 0.13 0.11 0.11 0.12 0.13 0.10 0.07 0.06 0.05 0.04 0.02 0.01 0.00 0.00 0.00 0.00
0.06 0.07 0.08 0.09 0.09 0.09 0.08 0.06 0.07 0.08 0.09 0.13 0.18 0.20 0.22 0.21 0.17 0.17 0.19 0.20 0.18 0.15 0.15 0.15 0.13 0.12 0.11 0.11 0.10 0.08 0.07 0.07 0.07 0.06 0.05 0.03 0.02 0.02 0.01 0.00 0.00 0.00 0.00
0.06 0.09 0.10 0.08 0.08 0.09 0.10 0.08 0.08 0.09 0.10 0.12 0.16 0.19 0.24 0.24 0.19 0.15 0.15 0.18 0.19 0.16 0.15 0.15 0.13 0.12 0.11 0.11 0.10 0.08 0.05 0.03 0.03 0.03 0.04 0.03 0.02 0.01 0.01 0.00 0.00 0.00 0.00
0.07 0.09 0.11 0.11 0.09 0.09 0.09 0.09 0.09 0.10 0.10 0.13 0.17 0.19 0.24 0.28 0.25 0.20 0.16 0.15 0.17 0.16 0.14 0.13 0.13 0.13 0.12 0.11 0.10 0.08 0.06 0.03 0.02 0.02 0.02 0.03 0.03 0.02 0.01 0.01 0.00 0.00 0.00
0.07 0.09 0.09 0.09 0.10 0.09 0.08 0.08 0.08 0.10 0.10 0.11 0.16 0.20 0.23 0.27 0.29 0.26 0.21 0.18 0.16 0.14 0.13 0.11 0.10 0.11 0.12 0.12 0.11 0.09 0.07 0.05 0.03 0.02 0.02 0.02 0.03 0.02 0.02 0.01 0.00 0.00 0.00
MSLP
1012.01 1011.25 1010.35 1009.43 1008.59 1007.92 1007.43 1007.12 1006.95 1006.85 1006.80 1006.76 1006.75 1006.77 1006.86 1007.03 1007.29 1007.62 1007.97 1008.32 1008.63 1008.88 1009.10 1009.30 1009.52 1009.79 1010.11 1010.48 1010.86 1011.24 1011.58 1011.86 1012.08 1012.25 1012.41 1012.58 1012.76 1012.97 1013.18 1013.38 1013.53 1013.64 1013.70
1012.44 1011.66 1010.74 1009.79 1008.93 1008.24 1007.73 1007.40 1007.20 1007.09 1007.01 1006.96 1006.92 1006.92 1006.99 1007.14 1007.38 1007.68 1008.02 1008.36 1008.65 1008.90 1009.11 1009.30 1009.50 1009.74 1010.04 1010.38 1010.76 1011.13 1011.47 1011.78 1012.04 1012.26 1012.46 1012.66 1012.87 1013.08 1013.29 1013.48 1013.62 1013.72 1013.79
1012.61 1011.84 1010.94 1010.03 1009.21 1008.55 1008.08 1007.77 1007.59 1007.47 1007.38 1007.29 1007.21 1007.16 1007.17 1007.26 1007.43 1007.68 1007.97 1008.26 1008.53 1008.76 1008.96 1009.15 1009.34 1009.58 1009.87 1010.20 1010.57 1010.95 1011.32 1011.65 1011.95 1012.22 1012.46 1012.70 1012.92 1013.14 1013.34 1013.51 1013.65 1013.75 1013.83
1012.56 1011.83 1010.99 1010.17 1009.44 1008.87 1008.47 1008.22 1008.06 1007.95 1007.84 1007.71 1007.57 1007.44 1007.36 1007.35 1007.43 1007.58 1007.80 1008.03 1008.26 1008.48 1008.68 1008.87 1009.09 1009.34 1009.65 1010.00 1010.38 1010.78 1011.17 1011.54 1011.87 1012.17 1012.45 1012.70 1012.93 1013.15 1013.34 1013.50 1013.64 1013.74 1013.83
1012.37 1011.71 1010.97 1010.26 1009.66 1009.20 1008.89 1008.70 1008.58 1008.47 1008.33 1008.14 1007.93 1007.71 1007.52 1007.41 1007.37 1007.42 1007.55 1007.72 1007.91 1008.11 1008.33 1008.55 1008.81 1009.11 1009.45 1009.84 1010.26 1010.69 1011.11 1011.50 1011.85 1012.17 1012.45 1012.70 1012.93 1013.13 1013.31 1013.46 1013.59 1013.71 1013.82
1012.16 1011.58 1010.96 1010.39 1009.91 1009.56 1009.34 1009.19 1009.08 1008.95 1008.77 1008.53 1008.24 1007.93 1007.65 1007.43 1007.29 1007.24 1007.28 1007.38 1007.54 1007.74 1007.97 1008.24 1008.56 1008.92 1009.33 1009.78 1010.25 1010.71 1011.15 1011.55 1011.91 1012.22 1012.49 1012.72 1012.93 1013.11 1013.27 1013.42 1013.55 1013.68 1013.81
1012.02 1011.53 1011.04 1010.59 1010.22 1009.96 1009.78 1009.65 1009.52 1009.35 1009.12 1008.82 1008.47 1008.10 1007.75 1007.44 1007.22 1007.09 1007.05 1007.09 1007.21 1007.40 1007.66 1007.98 1008.36 1008.80 1009.29 1009.80 1010.32 1010.82 1011.28 1011.69 1012.03 1012.32 1012.56 1012.76 1012.93 1013.09 1013.24 1013.38 1013.53 1013.68 1013.85
1012.01 1011.61 1011.22 1010.88 1010.59 1010.37 1010.19 1010.03 1009.86 1009.64 1009.35 1009.01 1008.62 1008.22 1007.83 1007.48 1007.20 1007.01 1006.90 1006.89 1006.96 1007.14 1007.40 1007.75 1008.20 1008.71 1009.27 1009.85 1010.43 1010.96 1011.44 1011.84 1012.17 1012.42 1012.62 1012.79 1012.94 1013.08 1013.22 1013.38 1013.55 1013.73 1013.93
1012.12 1011.81 1011.51 1011.23 1010.98 1010.76 1010.55 1010.33 1010.09 1009.80 1009.47 1009.11 1008.71 1008.31 1007.93 1007.58 1007.27 1007.03 1006.86 1006.78 1006.79 1006.92 1007.16 1007.52 1008.00 1008.56 1009.19 1009.84 1010.46 1011.04 1011.53 1011.93 1012.24 1012.47 1012.64 1012.79 1012.92 1013.05 1013.21 1013.38 1013.59 1013.81 1014.05
1012.31 1012.07 1011.83 1011.59 1011.35 1011.09 1010.82 1010.52 1010.20 1009.86 1009.50 1009.13 1008.76 1008.40 1008.05 1007.72 1007.41 1007.13 1006.89 1006.73 1006.66 1006.70 1006.89 1007.23 1007.71 1008.30 1008.97 1009.67 1010.35 1010.96 1011.48 1011.89 1012.20 1012.42 1012.58 1012.71 1012.84 1012.99 1013.17 1013.39 1013.64 1013.91 1014.19
1012.48 1012.30 1012.10 1011.88 1011.62 1011.31 1010.97 1010.59 1010.20 1009.81 1009.44 1009.10 1008.78 1008.48 1008.19 1007.90 1007.59 1007.27 1006.96 1006.70 1006.51 1006.45 1006.55 1006.83 1007.28 1007.88 1008.58 1009.33 1010.05 1010.71 1011.27 1011.71 1012.03 1012.25 1012.42 1012.56 1012.71 1012.89 1013.11 1013.37 1013.67 1014.00 1014.32
1012.58 1012.43 1012.26 1012.03 1011.74 1011.39 1010.98 1010.53 1010.09 1009.68 1009.31 1009.01 1008.76 1008.53 1008.31 1008.06 1007.75 1007.40 1007.01 1006.63 1006.32 1006.14 1006.13 1006.32 1006.72 1007.31 1008.03 1008.82 1009.59 1010.31 1010.91 1011.39 1011.75 1012.00 1012.18 1012.35 1012.53 1012.74 1013.00 1013.32 1013.67 1014.05 1014.42
1012.54 1012.41 1012.24 1012.00 1011.68 1011.28 1010.83 1010.34 1009.87 1009.44 1009.10 1008.85 1008.66 1008.51 1008.34 1008.13 1007.83 1007.44 1006.97 1006.49 1006.06 1005.76 1005.64 1005.75 1006.10 1006.66 1007.40 1008.22 1009.05 1009.82 1010.49 1011.02 1011.42 1011.70 1011.92 1012.12 1012.32 1012.57 1012.87 1013.23 1013.63 1014.05 1014.46
1012.37 1012.22 1012.03 1011.77 1011.43 1011.00 1010.51 1010.01 1009.52 1009.11 1008.79 1008.58 1008.45 1008.35 1008.24 1008.05 1007.75 1007.34 1006.82 1006.26 1005.74 1005.33 1005.13 1005.17 1005.48 1006.03 1006.78 1007.64 1008.53 1009.36 1010.08 1010.67 1011.11 1011.44 1011.69 1011.91 1012.14 1012.41 1012.74 1013.12 1013.55 1013.99 1014.43
1012.08 1011.89 1011.66 1011.37 1011.00 1010.55 1010.05 1009.54 1009.06 1008.66 1008.36 1008.18 1008.08 1008.02 1007.94 1007.77 1007.49 1007.07 1006.53 1005.93 1005.36 1004.91 1004.66 1004.67 1004.95 1005.51 1006.27 1007.17 1008.10 1008.99 1009.77 1010.41 1010.90 1011.26 1011.53 1011.77 1012.01 1012.28 1012.62 1013.01 1013.45 1013.90 1014.35
1011.70 1011.43 1011.14 1010.80 1010.40 1009.94 1009.45 1008.94 1008.47 1008.08 1007.79 1007.62 1007.52 1007.48 1007.41 1007.27 1007.01 1006.62 1006.10 1005.53 1004.97 1004.52 1004.27 1004.28 1004.57 1005.14 1005.93 1006.85 1007.82 1008.76 1009.59 1010.27 1010.80 1011.18 1011.47 1011.71 1011.95 1012.22 1012.54 1012.92 1013.34 1013.79 1014.23
1011.25 1010.88 1010.50 1010.11 1009.68 1009.22 1008.73 1008.24 1007.78 1007.39 1007.09 1006.90 1006.79 1006.73 1006.67 1006.55 1006.33 1005.99 1005.55 1005.05 1004.56 1004.17 1003.97 1004.01 1004.32 1004.90 1005.71 1006.65 1007.65 1008.62 1009.48 1010.20 1010.76 1011.17 1011.48 1011.72 1011.95 1012.20 1012.50 1012.85 1013.25 1013.67 1014.10
1010.72 1010.23 1009.76 1009.31 1008.85 1008.39 1007.92 1007.44 1006.99 1006.59 1006.27 1006.04 1005.90 1005.81 1005.74 1005.65 1005.48 1005.23 1004.89 1004.50 1004.12 1003.83 1003.70 1003.79 1004.13 1004.73 1005.53 1006.48 1007.49 1008.48 1009.37 1010.13 1010.72 1011.17 1011.50 1011.76 1011.99 1012.23 1012.51 1012.83 1013.19 1013.57 1013.97
1010.10 1009.48 1008.92 1008.41 1007.93 1007.47 1007.02 1006.57 1006.12 1005.71 1005.36 1005.08 1004.88 1004.76 1004.67 1004.60 1004.50 1004.34 1004.12 1003.86 1003.62 1003.44 1003.39 1003.53 1003.90 1004.49 1005.29 1006.22 1007.23 1008.22 1009.14 1009.94 1010.59 1011.09 1011.47 1011.77 1012.02 1012.27 1012.53 1012.83 1013.15 1013.50 1013.85
1009.35 1008.61 1007.96 1007.40 1006.91 1006.47 1006.05 1005.62 1005.18 1004.76 1004.36 1004.03 1003.78 1003.60 1003.50 1003.45 1003.40 1003.34 1003.25 1003.13 1003.01 1002.94 1002.98 1003.16 1003.53 1004.10 1004.87 1005.77 1006.76 1007.76 1008.71 1009.56 1010.28 1010.87 1011.33 1011.69 1012.00 1012.28 1012.56 1012.84 1013.14 1013.45 1013.75
1008.44 1007.59 1006.87 1006.28 1005.79 1005.38 1004.98 1004.59 1004.16 1003.73 1003.30 1002.91 1002.60 1002.38 1002.26 1002.22 1002.23 1002.26 1002.28 1002.28 1002.28 1002.30 1002.39 1002.59 1002.95 1003.49 1004.21 1005.07 1006.04 1007.05 1008.04 1008.96 1009.78 1010.47 1011.04 1011.51 1011.90 1012.25 1012.56 1012.85 1013.13 1013.41 1013.66
1007.36 1006.43 1005.65 1005.04 1004.56 1004.17 1003.81 1003.44 1003.04 1002.59 1002.13 1001.70 1001.34 1001.09 1000.95 1000.92 1000.98 1001.08 1001.20 1001.31 1001.41 1001.50 1001.63 1001.84 1002.17 1002.67 1003.33 1004.15 1005.09 1006.11 1007.15 1008.15 1009.08 1009.90 1010.61 1011.21 1011.71 1012.14 1012.51 1012.84 1013.12 1013.37 1013.58
1006.14 1005.14 1004.32 1003.69 1003.21 1002.84 1002.50 1002.15 1001.75 1001.30 1000.83 1000.37 999.98 999.70 999.56 999.55 999.65 999.83 1000.03 1000.23 1000.40 1000.56 1000.72 1000.94 1001.25 1001.70 1002.32 1003.10 1004.02 1005.05 1006.14 1007.22 1008.26 1009.21 1010.06 1010.80 1011.43 1011.96 1012.41 1012.78 1013.08 1013.32 1013.50
1004.82 1003.76 1002.89 1002.22 1001.72 1001.34 1001.00 1000.65 1000.25 999.80 999.32 998.86 998.47 998.19 998.07 998.09 998.25 998.50 998.78 999.07 999.32 999.55 999.75 999.98 1000.29 1000.71 1001.29 1002.05 1002.96 1004.00 1005.12 1006.27 1007.40 1008.47 1009.44 1010.31 1011.06 1011.69 1012.22 1012.65 1012.98 1013.23 1013.41
1003.46 1002.33 1001.38 1000.64 1000.08 999.65 999.27 998.90 998.50 998.06 997.59 997.15 996.79 996.55 996.47 996.56 996.78 997.11 997.50 997.88 998.22 998.53 998.80 999.07 999.40 999.83 1000.40 1001.13 1002.03 1003.07 1004.20 1005.39 1006.58 1007.72 1008.79 1009.75 1010.60 1011.33 1011.95 1012.44 1012.83 1013.11 1013.30
1002.08 1000.85 999.80 998.95 998.28 997.74 997.30 996.89 996.47 996.05 995.62 995.24 994.95 994.79 994.79 994.96 995.29 995.72 996.21 996.70 997.16 997.57 997.93 998.29 998.67 999.13 999.72 1000.45 1001.33 1002.34 1003.46 1004.65 1005.84 1007.02 1008.13 1009.15 1010.07 1010.88 1011.57 1012.14 1012.60 1012.94 1013.17
Thickness
5752 5758 5762 5765 5766 5767 5768 5768 5769 5769 5769 5769 5769 5769 5768 5767 5766 5765 5764 5763 5762 5760 5759 5758 5756 5755 5753 5751 5750 5748 5746 5744 5743 5741 5740 5738 5737 5735 5733 5731 5730 5728 5727
5746 5753 5757 5760 5761 5762 5763 5763 5764 5764 5765 5765 5765 5765 5765 5764 5763 5762 5761 5760 5759 5757 5756 5755 5753 5752 5750 5749 5747 5745 5743 5741 5739 5738 5736 5735 5733 5731 5729 5727 5726 5725 5723
5742 5747 5751 5753 5755 5757 5758 5758 5759 5759 5760 5760 5760 5760 5760 5760 5759 5758 5757 5757 5755 5754 5753 5751 5750 5748 5747 5745 5743 5741 5739 5738 5736 5734 5732 5731 5730 5728 5726 5724 5723 5721 5720
5736 5740 5743 5746 5749 5751 5752 5753 5753 5754 5754 5755 5756 5755 5755 5755 5755 5754 5753 5753 5752 5750 5749 5748 5746 5745 5743 5741 5739 5738 5736 5734 5732 5730 5729 5727 5726 5725 5723 5721 5719 5717 5715
5730 5733 5736 5740 5742 5744 5745 5746 5747 5748 5748 5749 5750 5750 5750 5750 5750 5749 5749 5748 5747 5746 5745 5744 5742 5741 5739 5737 5735 5734 5732 5730 5728 5726 5725 5724 5722 5721 5719 5717 5715 5713 5711
5721 5726 5730 5733 5735 5737 5739 5740 5741 5742 5743 5744 5744 5744 5745 5745 5745 5745 5745 5744 5743 5742 5741 5740 5738 5737 5735 5734 5732 5730 5728 5725 5723 5722 5721 5720 5718 5717 5715 5713 5711 5709 5706
5713 5717 5721 5725 5728 5730 5732 5734 5735 5735 5737 5738 5738 5738 5739 5740 5740 5740 5740 5739 5738 5737 5737 5736 5734 5733 5731 5730 5728 5726 5724 5721 5719 5718 5717 5716 5714 5713 5711 5709 5707 5705 5703
5703 5708 5712 5716 5719 5722 5724 5726 5728 5729 5730 5731 5732 5732 5733 5734 5734 5735 5735 5734 5734 5733 5732 5731 5731 5729 5727 5726 5724 5722 5719 5717 5715 5714 5713 5712 5710 5709 5707 5705 5703 5701 5698
5694 5698 5702 5706 5710 5713 5716 5718 5720 5722 5723 5724 5725 5726 5727 5727 5728 5729 5729 5729 5729 5728 5728 5727 5726 5725 5723 5721 5720 5718 5715 5713 5711 5709 5708 5707 5706 5705 5703 5701 5698 5696 5694
5683 5687 5691 5695 5700 5704 5707 5710 5712 5714 5716 5717 5718 5719 5720 5721 5722 5722 5723 5723 5723 5723 5722 5722 5721 5720 5718 5717 5715 5713 5711 5708 5706 5705 5704 5703 5702 5700 5698 5696 5694 5692 5689
5671 5675 5679 5684 5688 5693 5697 5701 5702 5704 5707 5709 5710 5711 5712 5714 5715 5716 5717 5717 5717 5717 5717 5716 5716 5715 5714 5712 5710 5708 5706 5704 5702 5701 5700 5699 5698 5696 5694 5692 5689 5687 5685
5657 5662 5667 5671 5676 5681 5686 5689 5692 5695 5697 5699 5701 5703 5704 5705 5707 5709 5710 5711 5711 5711 5711 5711 5710 5709 5708 5706 5704 5702 5701 5699 5697 5696 5695 5694 5694 5692 5690 5688 5685 5682 5680
5644 5649 5653 5658 5663 5668 5672 5677 5681 5684 5687 5690 5692 5694 5695 5697 5699 5701 5702 5703 5704 5705 5704 5705 5704 5703 5702 5701 5699 5697 5695 5694 5693 5692 5691 5690 5689 5688 5686 5683 5680 5678 5675
5631 5636 5640 5644 5649 5654 5659 5664 5668 5672 5676 5679 5682 5684 5686 5688 5690 5693 5695 5696 5698 5699 5698 5698 5698 5697 5696 5695 5693 5691 5690 5689 5688 5687 5686 5685 5685 5683 5681 5679 5676 5674 5671
5616 5621 5626 5631 5636 5641 5646 5650 5655 5659 5663 5667 5671 5673 5675 5678 5681 5683 5686 5688 5691 5692 5692 5692 5692 5691 5690 5688 5687 5686 5684 5683 5683 5682 5682 5681 5679 5678 5676 5674 5672 5669 5666
5601 5606 5611 5617 5622 5627 5632 5636 5641 5645 5650 5654 5659 5662 5665 5668 5670 5673 5677 5680 5682 5684 5684 5685 5685 5685 5684 5682 5680 5680 5680 5678 5677 5677 5677 5675 5674 5673 5671 5669 5667 5665 5662
5587 5591 5597 5603 5607 5611 5616 5621 5626 5631 5635 5640 5645 5649 5654 5657 5660 5663 5666 5670 5673 5675 5676 5676 5676 5676 5676 5676 5674 5674 5674 5672 5671 5671 5671 5670 5669 5667 5666 5664 5662 5660 5657
5573 5577 5581 5586 5590 5595 5600 5605 5610 5615 5619 5624 5629 5634 5640 5645 5648 5651 5655 5660 5663 5665 5667 5668 5668 5668 5668 5668 5668 5667 5666 5665 5665 5665 5665 5665 5664 5662 5660 5658 5657 5654 5652
5559 5562 5566 5571 5575 5579 5584 5589 5594 5598 5602 5608 5613 5618 5624 5630 5635 5639 5643 5648 5652 5655 5657 5659 5660 5660 5660 5660 5659 5659 5659 5658 5658 5658 5658 5659 5658 5656 5655 5653 5651 5649 5646
5545 5548 5552 5556 5560 5563 5568 5573 5577 5581 5586 5592 5598 5603 5609 5614 5620 5626 5631 5635 5639 5643 5646 5650 5651 5651 5652 5652 5651 5650 5650 5651 5650 5652 5652 5652 5651 5650 5649 5647 5645 5643 5641
5534 5536 5539 5542 5546 5548 5552 5556 5561 5565 5571 5577 5583 5589 5594 5600 5606 5612 5618 5622 5627 5632 5637 5640 5642 5642 5642 5643 5640 5638 5639 5641 5641 5644 5646 5646 5645 5645 5643 5642 5640 5638 5635
5522 5524 5527 5530 5533 5535 5539 5543 5547 5553 5558 5562 5569 5575 5581 5587 5593 5600 5605 5610 5615 5622 5625 5628 5632 5633 5634 5637 5637 5634 5632 5630 5633 5637 5639 5640 5640 5638 5637 5636 5634 5632 5629
5512 5514 5518 5519 5521 5524 5526 5529 5534 5538 5543 5548 5555 5562 5569 5576 5582 5588 5594 5600 5605 5612 5617 5621 5624 5627 5628 5629 5633 5634 5632 5632 5630 5629 5632 5635 5635 5633 5632 5630 5628 5626 5624
5504 5506 5507 5510 5511 5513 5514 5516 5520 5525 5531 5540 5545 5551 5558 5564 5571 5578 5584 5590 5595 5602 5608 5612 5617 5620 5622 5623 5625 5629 5633 5636 5631 5627 5626 5628 5628 5627 5627 5625 5623 5621 5619
5495 5497 5499 5501 5503 5505 5506 5507 5510 5515 5522 5529 5534 5540 5548 5555 5562 5569 5576 5581 5586 5593 5599 5604 5609 5612 5616 5620 5623 5623 5624 5627 5630 5629 5625 5622 5620 5621 5622 5620 5618 5616 5613
5487 5488 5489 5491 5496 5498 5500 5501 5502 5506 5512 5518 5524 5531 5539 5547 5555 5562 5568 5574 5580 5585 5591 5597 5602 5606 5611 5614 5617 5620 5624 5625 5625 5625 5623 5620 5617 5615 5614 5614 5612 5610 5608